contact:dominique.lefevre@mio.osupytheas.fr, maurice.libes@osupytheas.fr, didier.mallarino@osupytheas.fr
Project:EMSO http://www.emso-fr.org/EMSO-France
Depth: 2436.0 m
Title:EMSO Ligure Ouest : Data MII capteur MICROCAT
DateTime_Computer,Latitude,Longitude,Temperature,Conductivity,Pressure,DateTime_Instrument
DateTime_Computer,Latitude,Longitude,degC,S m-1,dbar,DateTime_Instrument
2021-06-16T00:01:05Z,42.805,6.029,13.2991,4.60003,2470.553,2021-6-16T02:02:18Z
2021-06-16T00:04:08Z,42.805,6.029,13.2994,4.60000,2470.507,2021-6-16T02:05:21Z
2021-06-16T00:07:11Z,42.805,6.029,13.2992,4.59999,2470.52,2021-6-16T02:08:25Z
2021-06-16T00:10:14Z,42.805,6.029,13.2994,4.60000,2470.544,2021-6-16T02:11:28Z
2021-06-16T00:13:17Z,42.805,6.029,13.2993,4.60001,2470.52,2021-6-16T02:14:31Z
2021-06-16T00:16:20Z,42.805,6.029,13.2992,4.60001,2470.507,2021-6-16T02:17:34Z
2021-06-16T00:19:23Z,42.805,6.029,13.2991,4.60003,2470.567,2021-6-16T02:20:37Z
2021-06-16T00:22:27Z,42.805,6.029,13.2991,4.60001,2470.553,2021-6-16T02:23:40Z
2021-06-16T00:25:30Z,42.805,6.029,13.2993,4.59999,2470.52,2021-6-16T02:26:43Z
2021-06-16T00:28:33Z,42.805,6.029,13.2993,4.59999,2470.507,2021-6-16T02:29:46Z
2021-06-16T00:31:36Z,42.805,6.029,13.2996,4.60001,2470.53,2021-6-16T02:32:50Z
2021-06-16T00:34:39Z,42.805,6.029,13.2991,4.60003,2470.567,2021-6-16T02:35:53Z
2021-06-16T00:37:42Z,42.805,6.029,13.2991,4.60003,2470.544,2021-6-16T02:38:56Z
2021-06-16T00:40:45Z,42.805,6.029,13.2990,4.60002,2470.52,2021-6-16T02:41:59Z
2021-06-16T00:43:48Z,42.805,6.029,13.2991,4.60000,2470.53,2021-6-16T02:45:02Z
2021-06-16T00:46:52Z,42.805,6.029,13.2993,4.60002,2470.53,2021-6-16T02:48:05Z
2021-06-16T00:49:55Z,42.805,6.029,13.2992,4.60001,2470.52,2021-6-16T02:51:08Z
2021-06-16T00:52:58Z,42.805,6.029,13.2993,4.60000,2470.507,2021-6-16T02:54:11Z
2021-06-16T00:56:01Z,42.805,6.029,13.2991,4.59999,2470.483,2021-6-16T02:57:15Z
2021-06-16T00:59:04Z,42.805,6.029,13.2993,4.60004,2470.507,2021-6-16T03:00:18Z
2021-06-16T01:02:07Z,42.805,6.029,13.2993,4.60004,2470.483,2021-6-16T03:03:21Z
2021-06-16T01:05:10Z,42.805,6.029,13.2994,4.60001,2470.544,2021-6-16T03:06:24Z
2021-06-16T01:08:13Z,42.805,6.029,13.2992,4.60005,2470.52,2021-6-16T03:09:27Z
2021-06-16T01:11:17Z,42.805,6.029,13.2995,4.60001,2470.497,2021-6-16T03:12:30Z
2021-06-16T01:14:20Z,42.805,6.029,13.2991,4.59999,2470.507,2021-6-16T03:15:33Z
2021-06-16T01:17:23Z,42.805,6.029,13.2991,4.60001,2470.544,2021-6-16T03:18:36Z
2021-06-16T01:20:26Z,42.805,6.029,13.2994,4.60006,2470.53,2021-6-16T03:21:40Z
2021-06-16T01:23:29Z,42.805,6.029,13.2991,4.59999,2470.544,2021-6-16T03:24:43Z
2021-06-16T01:26:32Z,42.805,6.029,13.2991,4.60001,2470.544,2021-6-16T03:27:46Z
2021-06-16T01:29:35Z,42.805,6.029,13.2989,4.59999,2470.53,2021-6-16T03:30:49Z
2021-06-16T01:32:38Z,42.805,6.029,13.2991,4.60002,2470.52,2021-6-16T03:33:52Z
2021-06-16T01:35:42Z,42.805,6.029,13.2988,4.59998,2470.493,2021-6-16T03:36:55Z
2021-06-16T01:38:45Z,42.805,6.029,13.2990,4.60000,2470.507,2021-6-16T03:39:58Z
2021-06-16T01:41:48Z,42.805,6.029,13.2993,4.59999,2470.52,2021-6-16T03:43:01Z
2021-06-16T01:44:51Z,42.805,6.029,13.2987,4.59999,2470.507,2021-6-16T03:46:05Z
2021-06-16T01:47:54Z,42.805,6.029,13.2991,4.60002,2470.483,2021-6-16T03:49:08Z
2021-06-16T01:50:57Z,42.805,6.029,13.2993,4.60001,2470.507,2021-6-16T03:52:11Z
2021-06-16T01:54:00Z,42.805,6.029,13.2992,4.60001,2470.497,2021-6-16T03:55:14Z
2021-06-16T01:57:03Z,42.805,6.029,13.2991,4.60004,2470.483,2021-6-16T03:58:17Z
2021-06-16T02:00:07Z,42.805,6.029,13.2991,4.60003,2470.483,2021-6-16T04:01:20Z
2021-06-16T02:03:10Z,42.805,6.029,13.2991,4.60003,2470.507,2021-6-16T04:04:23Z
2021-06-16T02:06:13Z,42.805,6.029,13.2992,4.59999,2470.497,2021-6-16T04:07:26Z
2021-06-16T02:09:16Z,42.805,6.029,13.2991,4.59999,2470.507,2021-6-16T04:10:30Z
2021-06-16T02:12:19Z,42.805,6.029,13.2988,4.59999,2470.483,2021-6-16T04:13:33Z
2021-06-16T02:15:22Z,42.805,6.029,13.2992,4.60000,2470.474,2021-6-16T04:16:36Z
2021-06-16T02:18:25Z,42.805,6.029,13.2991,4.60001,2470.483,2021-6-16T04:19:39Z
2021-06-16T02:21:28Z,42.805,6.029,13.2992,4.59999,2470.483,2021-6-16T04:22:42Z
2021-06-16T02:24:32Z,42.805,6.029,13.2992,4.60001,2470.46,2021-6-16T04:25:45Z
2021-06-16T02:27:35Z,42.805,6.029,13.2990,4.60000,2470.483,2021-6-16T04:28:48Z
2021-06-16T02:30:38Z,42.805,6.029,13.2994,4.59999,2470.474,2021-6-16T04:31:51Z
2021-06-16T02:33:41Z,42.805,6.029,13.2989,4.59999,2470.437,2021-6-16T04:34:54Z
2021-06-16T02:36:44Z,42.805,6.029,13.2986,4.59999,2470.45,2021-6-16T04:37:58Z
2021-06-16T02:39:47Z,42.805,6.029,13.2993,4.59999,2470.474,2021-6-16T04:41:01Z
2021-06-16T02:42:50Z,42.805,6.029,13.2991,4.59999,2470.474,2021-6-16T04:44:04Z
2021-06-16T02:45:53Z,42.805,6.029,13.2991,4.60002,2470.474,2021-6-16T04:47:07Z
2021-06-16T02:48:56Z,42.805,6.029,13.2994,4.59999,2470.46,2021-6-16T04:50:10Z
2021-06-16T02:52:00Z,42.805,6.029,13.2994,4.60002,2470.483,2021-6-16T04:53:13Z
2021-06-16T02:55:03Z,42.805,6.029,13.2991,4.60001,2470.483,2021-6-16T04:56:16Z
2021-06-16T02:58:06Z,42.805,6.029,13.2991,4.60003,2470.46,2021-6-16T04:59:19Z
2021-06-16T03:01:09Z,42.805,6.029,13.2991,4.59999,2470.45,2021-6-16T05:02:23Z
2021-06-16T03:04:12Z,42.805,6.029,13.2990,4.59999,2470.497,2021-6-16T05:05:26Z
2021-06-16T03:07:15Z,42.805,6.029,13.2992,4.59999,2470.497,2021-6-16T05:08:29Z
2021-06-16T03:10:18Z,42.805,6.029,13.2990,4.59999,2470.46,2021-6-16T05:11:32Z
2021-06-16T03:13:21Z,42.805,6.029,13.2990,4.59999,2470.427,2021-6-16T05:14:35Z
2021-06-16T03:16:25Z,42.805,6.029,13.2991,4.59999,2470.437,2021-6-16T05:17:38Z
2021-06-16T03:19:28Z,42.805,6.029,13.2991,4.59999,2470.45,2021-6-16T05:20:41Z
2021-06-16T03:22:31Z,42.805,6.029,13.2991,4.59999,2470.46,2021-6-16T05:23:44Z
2021-06-16T03:25:34Z,42.805,6.029,13.2992,4.59999,2470.437,2021-6-16T05:26:48Z
2021-06-16T03:28:37Z,42.805,6.029,13.2993,4.60003,2470.45,2021-6-16T05:29:51Z
2021-06-16T03:31:40Z,42.805,6.029,13.2990,4.60001,2470.45,2021-6-16T05:32:54Z
2021-06-16T03:34:43Z,42.805,6.029,13.2993,4.59998,2470.45,2021-6-16T05:35:57Z
2021-06-16T03:37:46Z,42.805,6.029,13.2993,4.60001,2470.437,2021-6-16T05:39:00Z
2021-06-16T03:40:50Z,42.805,6.029,13.2991,4.59999,2470.474,2021-6-16T05:42:03Z
2021-06-16T03:43:53Z,42.805,6.029,13.2991,4.60001,2470.46,2021-6-16T05:45:06Z
2021-06-16T03:46:56Z,42.805,6.029,13.2991,4.59999,2470.437,2021-6-16T05:48:09Z
2021-06-16T03:49:59Z,42.805,6.029,13.2991,4.59999,2470.46,2021-6-16T05:51:13Z
2021-06-16T03:53:02Z,42.805,6.029,13.2991,4.60000,2470.46,2021-6-16T05:54:16Z
2021-06-16T03:56:05Z,42.805,6.029,13.2990,4.59999,2470.45,2021-6-16T05:57:19Z
2021-06-16T03:59:08Z,42.805,6.029,13.2988,4.59999,2470.437,2021-6-16T06:00:22Z
2021-06-16T04:02:11Z,42.805,6.029,13.2990,4.60000,2470.437,2021-6-16T06:03:25Z
2021-06-16T04:05:15Z,42.805,6.029,13.2991,4.60004,2470.45,2021-6-16T06:06:28Z
2021-06-16T04:08:18Z,42.805,6.029,13.2992,4.59999,2470.45,2021-6-16T06:09:31Z
2021-06-16T04:11:21Z,42.805,6.029,13.2991,4.60001,2470.437,2021-6-16T06:12:34Z
2021-06-16T04:14:24Z,42.805,6.029,13.2993,4.60002,2470.437,2021-6-16T06:15:37Z
2021-06-16T04:17:27Z,42.805,6.029,13.2990,4.59998,2470.413,2021-6-16T06:18:41Z
2021-06-16T04:20:30Z,42.805,6.029,13.2991,4.59999,2470.437,2021-6-16T06:21:44Z
2021-06-16T04:23:33Z,42.805,6.029,13.2993,4.59999,2470.413,2021-6-16T06:24:47Z
2021-06-16T04:26:36Z,42.805,6.029,13.2988,4.59999,2470.427,2021-6-16T06:27:50Z
2021-06-16T04:29:40Z,42.805,6.029,13.2993,4.59999,2470.427,2021-6-16T06:30:53Z
2021-06-16T04:32:43Z,42.805,6.029,13.2993,4.60001,2470.474,2021-6-16T06:33:56Z
2021-06-16T04:35:46Z,42.805,6.029,13.2990,4.59999,2470.413,2021-6-16T06:36:59Z
2021-06-16T04:38:49Z,42.805,6.029,13.2991,4.60001,2470.427,2021-6-16T06:40:03Z
2021-06-16T04:41:52Z,42.805,6.029,13.2993,4.60001,2470.45,2021-6-16T06:43:06Z
2021-06-16T04:44:55Z,42.805,6.029,13.2995,4.59999,2470.437,2021-6-16T06:46:09Z
2021-06-16T04:47:58Z,42.805,6.029,13.2993,4.59999,2470.423,2021-6-16T06:49:12Z
2021-06-16T04:51:01Z,42.805,6.029,13.2992,4.60000,2470.413,2021-6-16T06:52:15Z
2021-06-16T04:54:05Z,42.805,6.029,13.2991,4.59999,2470.46,2021-6-16T06:55:18Z
2021-06-16T04:57:08Z,42.805,6.029,13.2991,4.59998,2470.45,2021-6-16T06:58:21Z
2021-06-16T05:00:11Z,42.805,6.029,13.2991,4.59999,2470.404,2021-6-16T07:01:24Z
2021-06-16T05:03:14Z,42.805,6.029,13.2991,4.59999,2470.437,2021-6-16T07:04:27Z
2021-06-16T05:06:17Z,42.805,6.029,13.2993,4.59998,2470.413,2021-6-16T07:07:31Z
2021-06-16T05:09:20Z,42.805,6.029,13.2990,4.60001,2470.399,2021-6-16T07:10:34Z
2021-06-16T05:12:23Z,42.805,6.029,13.2990,4.59999,2470.39,2021-6-16T07:13:37Z
2021-06-16T05:15:26Z,42.805,6.029,13.2991,4.59998,2470.404,2021-6-16T07:16:40Z
2021-06-16T05:18:29Z,42.805,6.029,13.2992,4.59997,2470.413,2021-6-16T07:19:43Z
2021-06-16T05:21:33Z,42.805,6.029,13.2996,4.59999,2470.437,2021-6-16T07:22:46Z
2021-06-16T05:24:36Z,42.805,6.029,13.2992,4.60001,2470.366,2021-6-16T07:25:49Z
2021-06-16T05:27:39Z,42.805,6.029,13.2990,4.60001,2470.413,2021-6-16T07:28:52Z
2021-06-16T05:30:42Z,42.805,6.029,13.2989,4.59999,2470.413,2021-6-16T07:31:56Z
2021-06-16T05:33:45Z,42.805,6.029,13.2993,4.59999,2470.437,2021-6-16T07:34:59Z
2021-06-16T05:36:48Z,42.805,6.029,13.2992,4.60000,2470.413,2021-6-16T07:38:02Z
2021-06-16T05:39:51Z,42.805,6.029,13.2993,4.60002,2470.437,2021-6-16T07:41:05Z
2021-06-16T05:42:54Z,42.805,6.029,13.2993,4.59998,2470.39,2021-6-16T07:44:08Z
2021-06-16T05:45:58Z,42.805,6.029,13.2993,4.59999,2470.427,2021-6-16T07:47:11Z
2021-06-16T05:49:01Z,42.805,6.029,13.2990,4.59999,2470.413,2021-6-16T07:50:14Z
2021-06-16T05:52:04Z,42.805,6.029,13.2991,4.59999,2470.413,2021-6-16T07:53:17Z
2021-06-16T05:55:07Z,42.805,6.029,13.2994,4.59998,2470.413,2021-6-16T07:56:21Z
2021-06-16T05:58:10Z,42.805,6.029,13.2992,4.59999,2470.413,2021-6-16T07:59:24Z
2021-06-16T06:01:13Z,42.805,6.029,13.2989,4.59999,2470.413,2021-6-16T08:02:27Z
2021-06-16T06:04:16Z,42.805,6.029,13.2990,4.59998,2470.39,2021-6-16T08:05:30Z
2021-06-16T06:07:19Z,42.805,6.029,13.2993,4.59998,2470.404,2021-6-16T08:08:33Z
2021-06-16T06:10:23Z,42.805,6.029,13.2991,4.60001,2470.413,2021-6-16T08:11:36Z
2021-06-16T06:13:26Z,42.805,6.029,13.2992,4.60001,2470.427,2021-6-16T08:14:39Z
2021-06-16T06:16:29Z,42.805,6.029,13.2990,4.59998,2470.413,2021-6-16T08:17:42Z
2021-06-16T06:19:32Z,42.805,6.029,13.2990,4.59999,2470.413,2021-6-16T08:20:46Z
2021-06-16T06:22:35Z,42.805,6.029,13.2991,4.60000,2470.39,2021-6-16T08:23:49Z
2021-06-16T06:25:38Z,42.805,6.029,13.2993,4.59999,2470.427,2021-6-16T08:26:52Z
2021-06-16T06:28:41Z,42.805,6.029,13.2990,4.59999,2470.39,2021-6-16T08:29:55Z
2021-06-16T06:31:44Z,42.805,6.029,13.2990,4.59999,2470.413,2021-6-16T08:32:58Z
2021-06-16T06:34:48Z,42.805,6.029,13.2989,4.59998,2470.39,2021-6-16T08:36:01Z
2021-06-16T06:37:51Z,42.805,6.029,13.2992,4.59998,2470.423,2021-6-16T08:39:04Z
2021-06-16T06:40:54Z,42.805,6.029,13.2992,4.59997,2470.413,2021-6-16T08:42:07Z
2021-06-16T06:43:57Z,42.805,6.029,13.2989,4.59999,2470.427,2021-6-16T08:45:10Z
2021-06-16T06:47:00Z,42.805,6.029,13.2991,4.59997,2470.366,2021-6-16T08:48:14Z
2021-06-16T06:50:03Z,42.805,6.029,13.2991,4.59998,2470.437,2021-6-16T08:51:17Z
2021-06-16T06:53:06Z,42.805,6.029,13.2990,4.59999,2470.427,2021-6-16T08:54:20Z
2021-06-16T06:56:09Z,42.805,6.029,13.2990,4.59998,2470.427,2021-6-16T08:57:23Z
2021-06-16T06:59:13Z,42.805,6.029,13.2993,4.59998,2470.39,2021-6-16T09:00:26Z
2021-06-16T07:02:16Z,42.805,6.029,13.2993,4.59998,2470.39,2021-6-16T09:03:29Z
2021-06-16T07:05:19Z,42.805,6.029,13.2994,4.60001,2470.413,2021-6-16T09:06:32Z
2021-06-16T07:08:22Z,42.805,6.029,13.2992,4.59999,2470.39,2021-6-16T09:09:35Z
2021-06-16T07:11:25Z,42.805,6.029,13.2993,4.59998,2470.404,2021-6-16T09:12:39Z
2021-06-16T07:14:28Z,42.805,6.029,13.2990,4.60001,2470.38,2021-6-16T09:15:42Z
2021-06-16T07:17:31Z,42.805,6.029,13.2992,4.60001,2470.45,2021-6-16T09:18:45Z
2021-06-16T07:20:34Z,42.805,6.029,13.2992,4.59998,2470.404,2021-6-16T09:21:48Z
2021-06-16T07:23:38Z,42.805,6.029,13.2990,4.60003,2470.404,2021-6-16T09:24:51Z
2021-06-16T07:26:41Z,42.805,6.029,13.2991,4.59998,2470.413,2021-6-16T09:27:54Z
2021-06-16T07:29:44Z,42.805,6.029,13.2991,4.59998,2470.427,2021-6-16T09:30:57Z
2021-06-16T07:32:47Z,42.805,6.029,13.2990,4.60000,2470.39,2021-6-16T09:34:01Z
2021-06-16T07:35:50Z,42.805,6.029,13.2987,4.59999,2470.413,2021-6-16T09:37:04Z
2021-06-16T07:38:53Z,42.805,6.029,13.2989,4.59998,2470.39,2021-6-16T09:40:07Z
2021-06-16T07:41:56Z,42.805,6.029,13.2991,4.59999,2470.427,2021-6-16T09:43:10Z
2021-06-16T07:44:59Z,42.805,6.029,13.2991,4.59998,2470.45,2021-6-16T09:46:13Z
2021-06-16T07:48:03Z,42.805,6.029,13.2990,4.59998,2470.413,2021-6-16T09:49:16Z
2021-06-16T07:51:06Z,42.805,6.029,13.2986,4.60000,2470.45,2021-6-16T09:52:19Z
2021-06-16T07:54:09Z,42.805,6.029,13.2991,4.59998,2470.413,2021-6-16T09:55:22Z
2021-06-16T07:57:12Z,42.805,6.029,13.2986,4.59999,2470.39,2021-6-16T09:58:25Z
2021-06-16T08:00:15Z,42.805,6.029,13.2993,4.59999,2470.404,2021-6-16T10:01:29Z
2021-06-16T08:03:18Z,42.805,6.029,13.2993,4.59999,2470.437,2021-6-16T10:04:32Z
2021-06-16T08:06:21Z,42.805,6.029,13.2992,4.59999,2470.413,2021-6-16T10:07:35Z
2021-06-16T08:09:24Z,42.805,6.029,13.2990,4.59999,2470.437,2021-6-16T10:10:38Z
2021-06-16T08:12:28Z,42.805,6.029,13.2991,4.59999,2470.413,2021-6-16T10:13:41Z
2021-06-16T08:15:31Z,42.805,6.029,13.2991,4.59999,2470.413,2021-6-16T10:16:44Z
2021-06-16T08:18:34Z,42.805,6.029,13.2993,4.59999,2470.427,2021-6-16T10:19:47Z
2021-06-16T08:21:37Z,42.805,6.029,13.2991,4.59998,2470.413,2021-6-16T10:22:51Z
2021-06-16T08:24:40Z,42.805,6.029,13.2991,4.60001,2470.39,2021-6-16T10:25:54Z
2021-06-16T08:27:43Z,42.805,6.029,13.2991,4.60005,2470.413,2021-6-16T10:28:57Z
2021-06-16T08:30:46Z,42.805,6.029,13.2991,4.59999,2470.413,2021-6-16T10:32:00Z
2021-06-16T08:33:49Z,42.805,6.029,13.2995,4.59999,2470.39,2021-6-16T10:35:03Z
2021-06-16T08:36:53Z,42.805,6.029,13.2991,4.59999,2470.437,2021-6-16T10:38:06Z
2021-06-16T08:39:56Z,42.805,6.029,13.2993,4.59999,2470.413,2021-6-16T10:41:09Z
2021-06-16T08:42:59Z,42.805,6.029,13.2989,4.59998,2470.404,2021-6-16T10:44:12Z
2021-06-16T08:46:02Z,42.805,6.029,13.2990,4.59998,2470.427,2021-6-16T10:47:16Z
2021-06-16T08:49:05Z,42.805,6.029,13.2992,4.59998,2470.45,2021-6-16T10:50:19Z
2021-06-16T08:52:08Z,42.805,6.029,13.2991,4.59998,2470.45,2021-6-16T10:53:22Z
2021-06-16T08:55:11Z,42.805,6.029,13.2991,4.59998,2470.413,2021-6-16T10:56:25Z
2021-06-16T08:58:14Z,42.805,6.029,13.2990,4.59999,2470.427,2021-6-16T10:59:28Z
2021-06-16T09:01:18Z,42.805,6.029,13.2989,4.59999,2470.474,2021-6-16T11:02:31Z
2021-06-16T09:04:21Z,42.805,6.029,13.2990,4.59998,2470.474,2021-6-16T11:05:34Z
2021-06-16T09:07:24Z,42.805,6.029,13.2991,4.59999,2470.483,2021-6-16T11:08:37Z
2021-06-16T09:10:27Z,42.805,6.029,13.2993,4.59999,2470.437,2021-6-16T11:11:41Z
2021-06-16T09:13:30Z,42.805,6.029,13.2991,4.59998,2470.474,2021-6-16T11:14:44Z
2021-06-16T09:16:33Z,42.805,6.029,13.2991,4.59999,2470.427,2021-6-16T11:17:47Z
2021-06-16T09:19:36Z,42.805,6.029,13.2995,4.59998,2470.45,2021-6-16T11:20:50Z
2021-06-16T09:22:39Z,42.805,6.029,13.2992,4.59999,2470.413,2021-6-16T11:23:53Z
2021-06-16T09:25:43Z,42.805,6.029,13.2995,4.59998,2470.413,2021-6-16T11:26:56Z
2021-06-16T09:28:46Z,42.805,6.029,13.2990,4.59999,2470.46,2021-6-16T11:29:59Z
2021-06-16T09:31:49Z,42.805,6.029,13.2993,4.59999,2470.45,2021-6-16T11:33:02Z
2021-06-16T09:34:52Z,42.805,6.029,13.2989,4.59998,2470.437,2021-6-16T11:36:06Z
2021-06-16T09:37:55Z,42.805,6.029,13.2990,4.59998,2470.437,2021-6-16T11:39:09Z
2021-06-16T09:40:58Z,42.805,6.029,13.2985,4.59998,2470.46,2021-6-16T11:42:12Z
2021-06-16T09:44:01Z,42.805,6.029,13.2991,4.59998,2470.46,2021-6-16T11:45:15Z
2021-06-16T09:47:04Z,42.805,6.029,13.2990,4.59999,2470.45,2021-6-16T11:48:18Z
2021-06-16T09:50:08Z,42.805,6.029,13.2994,4.59999,2470.45,2021-6-16T11:51:21Z
2021-06-16T09:53:11Z,42.805,6.029,13.2994,4.59998,2470.437,2021-6-16T11:54:24Z
2021-06-16T09:56:14Z,42.805,6.029,13.2993,4.59997,2470.413,2021-6-16T11:57:27Z
2021-06-16T09:59:17Z,42.805,6.029,13.2991,4.60000,2470.474,2021-6-16T12:00:31Z
2021-06-16T10:02:20Z,42.805,6.029,13.2993,4.59999,2470.46,2021-6-16T12:03:34Z
2021-06-16T10:05:23Z,42.805,6.029,13.2993,4.60002,2470.46,2021-6-16T12:06:37Z
2021-06-16T10:08:26Z,42.805,6.029,13.2991,4.59999,2470.437,2021-6-16T12:09:40Z
2021-06-16T10:11:29Z,42.805,6.029,13.2991,4.60000,2470.46,2021-6-16T12:12:43Z
2021-06-16T10:14:33Z,42.805,6.029,13.2992,4.60001,2470.46,2021-6-16T12:15:46Z
2021-06-16T10:17:36Z,42.805,6.029,13.2992,4.59999,2470.437,2021-6-16T12:18:49Z
2021-06-16T10:20:39Z,42.805,6.029,13.2994,4.59998,2470.437,2021-6-16T12:21:52Z
2021-06-16T10:23:42Z,42.805,6.029,13.2989,4.60001,2470.474,2021-6-16T12:24:56Z
2021-06-16T10:26:45Z,42.805,6.029,13.2991,4.60001,2470.46,2021-6-16T12:27:59Z
2021-06-16T10:29:48Z,42.805,6.029,13.2993,4.60002,2470.437,2021-6-16T12:31:02Z
2021-06-16T10:32:51Z,42.805,6.029,13.2990,4.60000,2470.446,2021-6-16T12:34:05Z
2021-06-16T10:35:54Z,42.805,6.029,13.2990,4.59999,2470.497,2021-6-16T12:37:08Z
2021-06-16T10:38:58Z,42.805,6.029,13.2990,4.59999,2470.413,2021-6-16T12:40:11Z
2021-06-16T10:42:01Z,42.805,6.029,13.2991,4.59999,2470.46,2021-6-16T12:43:14Z
2021-06-16T10:45:04Z,42.805,6.029,13.2990,4.59998,2470.45,2021-6-16T12:46:17Z
2021-06-16T10:48:07Z,42.805,6.029,13.2996,4.59999,2470.46,2021-6-16T12:49:21Z
2021-06-16T10:51:10Z,42.805,6.029,13.2992,4.60000,2470.45,2021-6-16T12:52:24Z
2021-06-16T10:54:13Z,42.805,6.029,13.2991,4.59999,2470.46,2021-6-16T12:55:27Z
2021-06-16T10:57:16Z,42.805,6.029,13.2991,4.59999,2470.483,2021-6-16T12:58:30Z
2021-06-16T11:00:20Z,42.805,6.029,13.2991,4.60000,2470.46,2021-6-16T13:01:33Z
2021-06-16T11:03:23Z,42.805,6.029,13.2991,4.59999,2470.474,2021-6-16T13:04:36Z
2021-06-16T11:06:26Z,42.805,6.029,13.2991,4.60004,2470.474,2021-6-16T13:07:39Z
2021-06-16T11:09:29Z,42.805,6.029,13.2991,4.59999,2470.497,2021-6-16T13:10:43Z
2021-06-16T11:12:32Z,42.805,6.029,13.2994,4.60003,2470.45,2021-6-16T13:13:46Z
2021-06-16T11:15:35Z,42.805,6.029,13.2991,4.60000,2470.493,2021-6-16T13:16:49Z
2021-06-16T11:18:38Z,42.805,6.029,13.2993,4.60001,2470.474,2021-6-16T13:19:52Z
2021-06-16T11:21:41Z,42.805,6.029,13.2992,4.59999,2470.437,2021-6-16T13:22:55Z
2021-06-16T11:24:45Z,42.805,6.029,13.2995,4.60000,2470.45,2021-6-16T13:25:58Z
2021-06-16T11:27:48Z,42.805,6.029,13.2993,4.59999,2470.497,2021-6-16T13:29:01Z
2021-06-16T11:30:51Z,42.805,6.029,13.2992,4.60004,2470.446,2021-6-16T13:32:04Z
2021-06-16T11:33:54Z,42.805,6.029,13.2991,4.60000,2470.474,2021-6-16T13:35:08Z
2021-06-16T11:36:57Z,42.805,6.029,13.2991,4.60002,2470.46,2021-6-16T13:38:11Z
2021-06-16T11:40:00Z,42.805,6.029,13.2991,4.60003,2470.46,2021-6-16T13:41:14Z
2021-06-16T11:43:03Z,42.805,6.029,13.2995,4.59999,2470.46,2021-6-16T13:44:17Z
2021-06-16T11:46:06Z,42.805,6.029,13.2992,4.60001,2470.46,2021-6-16T13:47:20Z
2021-06-16T11:49:10Z,42.805,6.029,13.2993,4.60003,2470.437,2021-6-16T13:50:23Z
2021-06-16T11:52:13Z,42.805,6.029,13.2994,4.60001,2470.45,2021-6-16T13:53:26Z
2021-06-16T11:55:16Z,42.805,6.029,13.2993,4.60001,2470.497,2021-6-16T13:56:29Z
2021-06-16T11:58:19Z,42.805,6.029,13.2990,4.60003,2470.497,2021-6-16T13:59:33Z
2021-06-16T12:01:22Z,42.805,6.029,13.2989,4.60003,2470.46,2021-6-16T14:02:36Z
2021-06-16T12:04:25Z,42.805,6.029,13.2990,4.60010,2470.437,2021-6-16T14:05:39Z
2021-06-16T12:07:28Z,42.805,6.029,13.2993,4.60001,2470.46,2021-6-16T14:08:42Z
2021-06-16T12:10:31Z,42.805,6.029,13.2994,4.60004,2470.46,2021-6-16T14:11:45Z
2021-06-16T12:13:35Z,42.805,6.029,13.2991,4.60002,2470.45,2021-6-16T14:14:48Z
2021-06-16T12:16:38Z,42.805,6.029,13.2993,4.59999,2470.46,2021-6-16T14:17:51Z
2021-06-16T12:19:41Z,42.805,6.029,13.2991,4.60000,2470.413,2021-6-16T14:20:55Z
2021-06-16T12:22:44Z,42.805,6.029,13.2991,4.60001,2470.423,2021-6-16T14:23:58Z
2021-06-16T12:25:47Z,42.805,6.029,13.2995,4.60002,2470.46,2021-6-16T14:27:01Z
2021-06-16T12:28:50Z,42.805,6.029,13.2995,4.59999,2470.437,2021-6-16T14:30:04Z
2021-06-16T12:31:53Z,42.805,6.029,13.2990,4.59999,2470.45,2021-6-16T14:33:07Z
2021-06-16T12:34:57Z,42.805,6.029,13.2992,4.60001,2470.45,2021-6-16T14:36:10Z
2021-06-16T12:38:00Z,42.805,6.029,13.2990,4.60001,2470.46,2021-6-16T14:39:13Z
2021-06-16T12:41:03Z,42.805,6.029,13.2992,4.60000,2470.437,2021-6-16T14:42:16Z
2021-06-16T12:44:06Z,42.805,6.029,13.2990,4.59999,2470.437,2021-6-16T14:45:20Z
2021-06-16T12:47:09Z,42.805,6.029,13.2991,4.60001,2470.441,2021-6-16T14:48:23Z
2021-06-16T12:50:12Z,42.805,6.029,13.2991,4.60002,2470.437,2021-6-16T14:51:26Z
2021-06-16T12:53:15Z,42.805,6.029,13.2996,4.60002,2470.45,2021-6-16T14:54:29Z
2021-06-16T12:56:18Z,42.805,6.029,13.2995,4.60003,2470.437,2021-6-16T14:57:32Z
2021-06-16T12:59:22Z,42.805,6.029,13.2990,4.60001,2470.437,2021-6-16T15:00:35Z
2021-06-16T13:02:25Z,42.805,6.029,13.2992,4.60004,2470.474,2021-6-16T15:03:38Z
2021-06-16T13:05:28Z,42.805,6.029,13.2992,4.60002,2470.423,2021-6-16T15:06:41Z
2021-06-16T13:08:31Z,42.805,6.029,13.2991,4.60001,2470.413,2021-6-16T15:09:45Z
2021-06-16T13:11:34Z,42.805,6.029,13.2992,4.59999,2470.437,2021-6-16T15:12:48Z
2021-06-16T13:14:37Z,42.805,6.029,13.2994,4.59999,2470.45,2021-6-16T15:15:51Z
2021-06-16T13:17:40Z,42.805,6.029,13.2991,4.59999,2470.404,2021-6-16T15:18:54Z
2021-06-16T13:20:43Z,42.805,6.029,13.2993,4.60000,2470.427,2021-6-16T15:21:57Z
2021-06-16T13:23:47Z,42.805,6.029,13.2992,4.60000,2470.413,2021-6-16T15:25:00Z
2021-06-16T13:26:50Z,42.805,6.029,13.2994,4.60009,2470.474,2021-6-16T15:28:03Z
2021-06-16T13:29:53Z,42.805,6.029,13.2993,4.60001,2470.427,2021-6-16T15:31:06Z
2021-06-16T13:32:56Z,42.805,6.029,13.2994,4.60001,2470.45,2021-6-16T15:34:10Z
2021-06-16T13:35:59Z,42.805,6.029,13.2991,4.60006,2470.404,2021-6-16T15:37:13Z
2021-06-16T13:39:02Z,42.805,6.029,13.2992,4.60000,2470.437,2021-6-16T15:40:16Z
2021-06-16T13:42:05Z,42.805,6.029,13.2991,4.60001,2470.437,2021-6-16T15:43:19Z
2021-06-16T13:45:08Z,42.805,6.029,13.2992,4.60001,2470.413,2021-6-16T15:46:22Z
2021-06-16T13:48:12Z,42.805,6.029,13.2993,4.59999,2470.39,2021-6-16T15:49:25Z
2021-06-16T13:51:15Z,42.805,6.029,13.2992,4.60002,2470.427,2021-6-16T15:52:28Z
2021-06-16T13:54:18Z,42.805,6.029,13.2990,4.60003,2470.413,2021-6-16T15:55:31Z
2021-06-16T13:57:21Z,42.805,6.029,13.2991,4.60001,2470.39,2021-6-16T15:58:35Z
2021-06-16T14:00:24Z,42.805,6.029,13.2993,4.59999,2470.413,2021-6-16T16:01:38Z
2021-06-16T14:03:27Z,42.805,6.029,13.2996,4.60000,2470.427,2021-6-16T16:04:41Z
2021-06-16T14:06:30Z,42.805,6.029,13.2991,4.60001,2470.437,2021-6-16T16:07:44Z
2021-06-16T14:09:33Z,42.805,6.029,13.2990,4.60000,2470.437,2021-6-16T16:10:47Z
2021-06-16T14:12:37Z,42.805,6.029,13.2992,4.60004,2470.404,2021-6-16T16:13:50Z
2021-06-16T14:15:40Z,42.805,6.029,13.2994,4.60002,2470.404,2021-6-16T16:16:53Z
2021-06-16T14:18:43Z,42.805,6.029,13.2992,4.60000,2470.413,2021-6-16T16:19:57Z
2021-06-16T14:21:46Z,42.805,6.029,13.2989,4.60000,2470.413,2021-6-16T16:23:00Z
2021-06-16T14:24:49Z,42.805,6.029,13.2991,4.60003,2470.404,2021-6-16T16:26:03Z
2021-06-16T14:27:52Z,42.805,6.029,13.2992,4.60000,2470.39,2021-6-16T16:29:06Z
2021-06-16T14:30:55Z,42.805,6.029,13.2990,4.60000,2470.413,2021-6-16T16:32:09Z
2021-06-16T14:33:58Z,42.805,6.029,13.2990,4.59999,2470.413,2021-6-16T16:35:12Z
2021-06-16T14:37:02Z,42.805,6.029,13.2993,4.60001,2470.39,2021-6-16T16:38:15Z
2021-06-16T14:40:05Z,42.805,6.029,13.2995,4.60001,2470.404,2021-6-16T16:41:18Z
2021-06-16T14:43:08Z,42.805,6.029,13.2994,4.60002,2470.413,2021-6-16T16:44:22Z
2021-06-16T14:46:11Z,42.805,6.029,13.2994,4.60000,2470.413,2021-6-16T16:47:25Z
2021-06-16T14:49:14Z,42.805,6.029,13.2993,4.60001,2470.39,2021-6-16T16:50:28Z
2021-06-16T14:52:17Z,42.805,6.029,13.2993,4.60002,2470.404,2021-6-16T16:53:31Z
2021-06-16T14:55:20Z,42.805,6.029,13.2991,4.60001,2470.427,2021-6-16T16:56:34Z
2021-06-16T14:58:24Z,42.805,6.029,13.2993,4.60000,2470.413,2021-6-16T16:59:37Z
2021-06-16T15:01:27Z,42.805,6.029,13.2996,4.60000,2470.39,2021-6-16T17:02:40Z
2021-06-16T15:04:30Z,42.805,6.029,13.2994,4.60001,2470.343,2021-6-16T17:05:43Z
2021-06-16T15:07:33Z,42.805,6.029,13.2989,4.60000,2470.39,2021-6-16T17:08:47Z
2021-06-16T15:10:36Z,42.805,6.029,13.2993,4.60003,2470.38,2021-6-16T17:11:50Z
2021-06-16T15:13:39Z,42.805,6.029,13.2993,4.60001,2470.366,2021-6-16T17:14:53Z